{"data":{"norad_id":69602,"epoch":"2026-09-20T04:00:03.000096Z","epoch_age_seconds":57893,"freshness":"FRESH","line1":"1 69602U 26140L   26263.16670139 -.00006138  00000+0 -73495-3 0  9998","line2":"2 69602  51.9024 305.6807 0008507 140.4705  86.8661 14.82180383  3743","mean_motion":14.82180383,"eccentricity":0.0008507,"inclination_deg":51.9024,"raan_deg":305.6807,"arg_perigee_deg":140.4705,"mean_anomaly_deg":86.8661,"bstar":-0.00073495,"rev_number":374,"period_min":97.154166693623,"perigee_km":616.49476417474,"apogee_km":628.40556317502,"semimajor_km":7000.5871636749,"source":"CELESTRAK","updated_at":"2026-09-20T09:00:25.001257Z"}}